Regional Weather Roundup
Issued by NWS

Home | Current Version | Previous Version | Graphics & Text | Print | Product List | Glossary On
Versions: 1 2 3 4 5 6 7 8 9 10 11 12 13 14 15 16 17 18 19 20 21 22 23 24 25 26 27 28 29 30 31 32 33 34 35 36 37 38 39 40 41 42 43 44 45 46 47 48 49 50
000
ASUS45 KBOU 270407
RWRCO

WEATHER ROUNDUP FOR COLORADO
NATIONAL WEATHER SERVICE DENVER/BOULDER CO
1000 PM MDT THU MAR 26 2015

NOTE: "FAIR" INDICATES FEW OR NO CLOUDS BELOW 12000 FEET WITH NO
SIGNIFICANT WEATHER AND/OR OBSTRUCTIONS TO VISIBILITY.

COZ001>005-013-030-031-270500-
...NORTHWEST COLORADO...

CITY           SKY/WX    TMP DP  RH WIND       PRES   REMARKS
CRAIG          MOCLDY    42  26  53 CALM      30.29R
HAYDEN         MOCLDY    46  21  36 N6        30.29R
MEEKER         CLEAR     41  26  55 CALM      30.31R
MOUNT WERNER   NOT AVBL
STEAMBOAT SPGS CLOUDY    40  29  65 E7        30.30R
WALDEN         CLOUDY    36  27  69 SE8       30.29S
$$

COZ006>008-011-270500-
...WEST CENTRAL VALLEYS...

CITY           SKY/WX    TMP DP  RH WIND       PRES   REMARKS
GRAND JUNCTION CLEAR     51  17  26 CALM      30.26R
MONTROSE       PTCLDY    45  24  43 SE12      30.32R
EAGLE          CLOUDY    48  25  40 CALM      30.32R
RIFLE          CLEAR     48  22  35 S6        30.28R
DELTA          PTCLDY    47  23  38 CALM      30.28R
NUCLA          PTCLDY    45  19  36 E10       30.34R
$$

COZ017>023-064>068-270500-
...SOUTHWEST COLORADO...

CITY           SKY/WX    TMP DP  RH WIND       PRES   REMARKS
DURANGO        CLEAR     45  19  35 CALM      30.28R
CORTEZ         CLEAR     41  16  36 E5        30.30R
PAGOSA SPRINGS CLEAR     40  19  43 NE8       30.32R
TELLURIDE      NOT AVBL
WOLF CREEK PAS PTCLDY    30  10  43 W5        30.48S WCI  25
$$

COZ009-010-012-014-032>034-037-058>063-270500-
...CENTRAL COLORADO...

CITY           SKY/WX    TMP DP  RH WIND       PRES   REMARKS
ASPEN          CLOUDY    37  26  64 S8        30.34R
BUENA VISTA    MOCLDY    43  21  40 NW5       30.30R
COPPER MTN     CLOUDY    32  21  64 W23G32    30.42R WCI  19
BERTHOUD PASS  CLOUDY    21  14  73 MISG      30.37R
COTTONWOOD PAS MOCLDY    41  18  38 W16G24    30.35S
GUNNISON       CLEAR     39  18  41 SW6       30.37R
KREMMLING      CLOUDY    36  27  69 CALM      30.31F
LEADVILLE      CLOUDY    33  18  53 NW9       30.36S WCI  25
SALIDA         MOCLDY    49  19  29 W9G20     30.36R
SUNLIGHT       PTCLDY    32  21  64 CALM      30.46R
WILKERSON PASS MOCLDY    30  19  64 NW17G28   30.38R WCI  18
$$

COZ069>075-270500-
...SAN LUIS VALLEY/SANGRE DE CRISTO MOUNTAINS...

CITY           SKY/WX    TMP DP  RH WIND       PRES   REMARKS
ALAMOSA        MOCLDY    49  15  25 N21G28    30.26R
LA VETA PASS   CLOUDY    34  18  51 W7G16     30.35R WCI  28
SAGUACHE       PTCLDY    45  18  33 N12       30.31R
$$

COZ035-036-038>040-270500-
...NORTHERN COLORADO FRONT RANGE...

CITY           SKY/WX    TMP DP  RH WIND       PRES   REMARKS
DENVER INTL AP CLOUDY    50  32  50 E6        30.16S
DMNS CITY PARK   N/A     55  24  31 W7        30.15S
AURORA         MOCLDY    52  27  37 W6        30.17S
FRONT RANGE AP NOT AVBL
ERIE MUNI ARPT CLOUDY    54  27  35 NE3       30.15R
BOULDER MUN AP CLOUDY    55  27  33 W15G22    30.14S
CENTENNIAL     CLOUDY    52  26  36 N9        30.17S
BROOMFIELD     MOCLDY    54  27  35 W8        30.17R
FORT COLLINS   CLOUDY    48  27  43 E8        30.18R
LONGMONT       CLOUDY    53  30  40 E13       30.17R
$$

COZ041-046-047-076>085-087-088-270500-
...PIKES PEAK/PALMER DIVIDE AND SOUTHERN FOOTHILLS...

CITY           SKY/WX    TMP DP  RH WIND       PRES   REMARKS
COLO. SPRINGS  MOCLDY    47  23  38 E5        30.22R
A. F. ACADEMY  MOCLDY    40  27  59 N8        30.22R
ELLICOTT       CLOUDY   N/A N/A N/A SE3       30.21R
FALCON         CLOUDY    42  24  48 SW7       30.24S
FORT CARSON    MOCLDY    44  27  50 W6        30.20R
LIMON          CLOUDY    39  31  72 S3        30.19R
MONUMENT HILL  MOCLDY    36  28  75 S7        30.21S
TRINIDAD       CLOUDY    42  28  57 SW5       30.22R
$$

COZ042>045-048>051-090-091-270500-
...NORTHEAST COLORADO...

CITY           SKY/WX    TMP DP  RH WIND       PRES   REMARKS
GREELEY ARPT   CLOUDY    50  27  40 E8        30.16R
AKRON          CLOUDY    45  31  58 E5        30.18R
BURLINGTON     CLOUDY    49  30  48 N10       30.17F
WRAY           CLOUDY    48  32  54 N5        30.19R
STERLING       CLOUDY    45  32  61 NE3       30.16S
HOLYOKE        CLOUDY    45  30  57 E7        30.17R
FORT MORGAN    CLOUDY    45  30  56 E7        30.17S
$$

COZ086-089-092>099-270500-
...SOUTHEAST COLORADO...

CITY           SKY/WX    TMP DP  RH WIND       PRES   REMARKS
PUEBLO         MOCLDY    46  29  51 CALM      30.18R
LA JUNTA       MOCLDY    53  22  29 E7        30.18R
LAMAR          MOCLDY    42  28  57 CALM      30.15R
SPRINGFIELD      N/A     38  27  64 W8        30.18R
$$



USA.gov is the U.S. government's official web portal to all federal, state and local government web resources and services.